Morrisville, VT

6:04 AM EST on December 09, 2019 (GMT -0500)
Morrisville Stowe State

Weather History for KMVL - August, 2019

Change the Weather History Date:

Thursday, August 8, 2019

  Actual Average Record
Temperature  
Mean Temperature 72 °F 67 °F  
Max Temperature 81 °F 79 °F 91 °F (2001)
Min Temperature 63 °F 54 °F 46 °F (2010)
Degree Days  
Heating Degree Days 0 2  
Month to date heating degree days 8 11  
Since 1 June heating degree days 161 164  
Since 1 July heating degree days 18 41  
Cooling Degree Days 7 3  
Month to date cooling degree days 15 24  
Year to date cooling degree days 197 192  
Since 1 June cooling degree days 196 184  
Growing Degree Days 23 (Base 50)    
Moisture  
Dew Point 65 °F    
Average Humidity 76    
Maximum Humidity 100    
Minimum Humidity 51    
Precipitation  
Precipitation 0.26 in 0.13 in 0.50 in (1999)
Month to date precipitation 1.15 1.16  
Year to date precipitation 24.59 20.89  
Sea Level Pressure  
Sea Level Pressure 29.65 in    
Wind  
Wind Speed 3 mph (SSW)    
Max Wind Speed 9 mph    
Max Gust Speed -    
Visibility 8 miles    
Events Rain , Thunderstorm    
T = Trace of Precipitation, MM = Missing Value Source: NWS Daily Summary

Daily Weather History Graph

Daily Weather History Graph

Search for Another Location

Airport or City:

Astronomy

Aug. 08, 2019 Rise Set
Actual Time 5:44 AM EDT 8:06 PM EDT
Civil Twilight 5:12 AM EDT 8:39 PM EDT
Nautical Twilight 4:31 AM EDT 9:19 PM EDT
Astronomical Twilight 3:46 AM EDT 10:04 PM EDT
Moon 2:39 PM EDT (8/8) 12:07 AM EDT (8/8)
Length of Visible Light 15h 26m
Length of Day
14h 21m
First Quarter, 60% of the Moon is Illuminated
Aug 8
First Quarter
Aug 15
Full
Aug 23
Last Quarter
Aug 30
New
Sep 5
First Quarter

Hourly Weather History & Observations

Time (EDT) Temp. Heat Index Dew Point Humidity Pressure Visibility Wind Dir Wind Speed Gust Speed Precip Events Conditions
12:20 AM 66.9 °F - 64.9 °F 93% 29.73 in 6.0 mi Calm Calm - N/A   Mostly Cloudy
12:54 AM 66.9 °F - 66.0 °F 97% 29.72 in 8.0 mi Calm Calm - N/A   Overcast
1:54 AM 66.9 °F - 66.0 °F 97% 29.71 in 8.0 mi North 4.6 mph - 0.00 in Thunderstorm Overcast
2:16 AM 66.9 °F - 66.0 °F 97% 29.71 in 3.0 mi NNE 5.8 mph - 0.05 in Rain , Thunderstorm Rain
2:24 AM 66.9 °F - 66.0 °F 97% 29.71 in 6.0 mi North 5.8 mph - 0.06 in Rain Light Rain
2:42 AM 66.9 °F - 66.0 °F 97% 29.70 in 7.0 mi North 4.6 mph - 0.07 in Rain Light Rain
2:51 AM 66.2 °F - 66.2 °F 100% 29.69 in 8.0 mi North 3.5 mph - 0.07 in Rain Light Rain
2:54 AM 66.9 °F - 66.0 °F 97% 29.68 in 9.0 mi Calm Calm - 0.07 in   Overcast
3:37 AM 66.9 °F - 66.0 °F 97% 29.68 in 5.0 mi Calm Calm - N/A   Overcast
3:54 AM 66.9 °F - 66.0 °F 97% 29.66 in 5.0 mi Calm Calm - 0.01 in   Overcast
4:20 AM 66.0 °F - 64.9 °F 96% 29.67 in 1.8 mi South 3.5 mph - N/A   Mostly Cloudy
4:24 AM 66.0 °F - 64.9 °F 96% 29.67 in 2.0 mi South 3.5 mph - N/A   Mostly Cloudy
4:34 AM 66.0 °F - 64.9 °F 96% 29.67 in 8.0 mi South 3.5 mph - N/A   Scattered Clouds
4:54 AM 66.0 °F - 64.9 °F 96% 29.66 in 10.0 mi Calm Calm - N/A   Scattered Clouds
5:02 AM 66.0 °F - 64.9 °F 96% 29.67 in 9.0 mi SSE 3.5 mph - N/A   Mostly Cloudy
5:54 AM 66.9 °F - 64.9 °F 93% 29.67 in 10.0 mi South 4.6 mph - N/A   Overcast
6:50 AM 66.2 °F - 66.2 °F 100% 29.67 in 10.0 mi Calm Calm - N/A   Scattered Clouds
6:54 AM 68.0 °F - 66.0 °F 93% 29.66 in 10.0 mi Calm Calm - N/A   Scattered Clouds
7:40 AM 68.0 °F - 66.0 °F 93% 29.66 in 10.0 mi Calm Calm - 0.00 in Rain Light Rain
7:54 AM 68.0 °F - 66.9 °F 96% 29.66 in 6.0 mi Calm Calm - 0.03 in Rain Light Rain
8:09 AM 68.0 °F - 66.0 °F 93% 29.66 in 3.0 mi Calm Calm - 0.04 in Rain Rain
8:18 AM 68.0 °F - 66.0 °F 93% 29.65 in 2.0 mi Calm Calm - 0.07 in Rain Rain
8:27 AM 68.0 °F - 66.9 °F 96% 29.65 in 6.0 mi Calm Calm - 0.08 in Rain Light Rain
8:42 AM 68.0 °F - 66.9 °F 96% 29.65 in 8.0 mi Calm Calm - 0.10 in Rain Light Rain
8:51 AM 68.0 °F - 66.2 °F 94% 29.65 in 5.0 mi SSW 3.5 mph - 0.12 in Rain Rain
8:54 AM 68.0 °F - 66.0 °F 93% 29.65 in 4.0 mi SSW 3.5 mph - 0.13 in Rain Rain
9:28 AM 69.1 °F - 66.9 °F 93% 29.65 in 10.0 mi Variable 3.5 mph - 0.02 in Rain Light Rain
9:54 AM 69.1 °F - 66.9 °F 93% 29.65 in 10.0 mi Calm Calm - 0.02 in   Overcast
10:19 AM 69.1 °F - 66.9 °F 93% 29.65 in 10.0 mi NNW 3.5 mph - N/A   Overcast
10:32 AM 70.0 °F - 66.0 °F 87% 29.65 in 10.0 mi Calm Calm - N/A   Overcast
10:43 AM 71.1 °F - 66.9 °F 87% 29.64 in 10.0 mi Calm Calm - N/A   Overcast
10:54 AM 71.1 °F - 68.0 °F 90% 29.64 in 9.0 mi Calm Calm - 0.00 in Rain Light Rain
11:15 AM 72.0 °F - 66.9 °F 84% 29.64 in 10.0 mi Calm Calm - 0.00 in   Mostly Cloudy
11:22 AM 73.0 °F - 68.0 °F 84% 29.64 in 10.0 mi Calm Calm - 0.00 in   Mostly Cloudy
11:54 AM 73.0 °F - 66.9 °F 81% 29.63 in 10.0 mi South 4.6 mph - 0.00 in   Mostly Cloudy
12:09 PM 73.0 °F - 66.0 °F 79% 29.64 in 10.0 mi Calm Calm - N/A   Mostly Cloudy
12:16 PM 73.9 °F - 66.0 °F 76% 29.64 in 10.0 mi Calm Calm - N/A   Mostly Cloudy
12:54 PM 75.9 °F - 66.0 °F 71% 29.62 in 10.0 mi SW 5.8 mph - N/A   Scattered Clouds
1:54 PM 77.0 °F - 63.0 °F 62% 29.61 in 10.0 mi South 5.8 mph - N/A   Mostly Cloudy
2:54 PM 80.1 °F 81.5 °F 63.0 °F 56% 29.58 in 10.0 mi Calm Calm - N/A   Partly Cloudy
3:54 PM 80.1 °F 81.1 °F 61.0 °F 52% 29.57 in 10.0 mi SW 5.8 mph - N/A   Scattered Clouds
4:54 PM 77.0 °F - 63.0 °F 62% 29.58 in 10.0 mi SSW 9.2 mph - 0.00 in   Mostly Cloudy
5:54 PM 78.1 °F - 63.0 °F 60% 29.57 in 10.0 mi South 9.2 mph - N/A   Clear
6:54 PM 75.9 °F - 64.9 °F 69% 29.56 in 10.0 mi Calm Calm - N/A   Clear
7:54 PM 70.0 °F - 66.0 °F 87% 29.57 in 10.0 mi SW 3.5 mph - N/A   Scattered Clouds
8:54 PM 69.1 °F - 66.0 °F 90% 29.59 in 10.0 mi Calm Calm - N/A   Overcast
9:24 PM 70.0 °F - 64.9 °F 84% 29.61 in 10.0 mi NNE 4.6 mph - N/A   Mostly Cloudy
9:54 PM 66.9 °F - 63.0 °F 87% 29.62 in 10.0 mi ENE 6.9 mph - N/A   Mostly Cloudy
10:54 PM 66.9 °F - 63.0 °F 87% 29.62 in 10.0 mi Calm Calm - N/A   Mostly Cloudy
11:54 PM 66.0 °F - 57.9 °F 75% 29.63 in 10.0 mi Calm Calm - N/A   Clear